• In Hungary
  • List of Countries
  • For 7 days
  • Water Temperature
  • Satellite Maps
  • Weather Map
  • News
  • Weather Widgets
  • user-avatar
    Login

    Hourly Weather Okskiy

    Today, 15 August, Wednesday

    Time Temperature Precipitation Wind Pressure Humidity
    00:00 +18°C° 0 mm 1 mps 753 mmHg 80%
    01:00 +17°C° 0 mm 2 mps 753 mmHg 81%
    02:00 +16°C° 0 mm 2 mps 753 mmHg 82%
    03:00 +16°C° 0 mm 2 mps 753 mmHg 83%
    04:00 +16°C° 0 mm 2 mps 753 mmHg 82%
    05:00 +16°C° 0 mm 2 mps 753 mmHg 81%
    06:00 +16°C° 0 mm 2 mps 753 mmHg 81%
    07:00 +19°C° 0 mm 3 mps 753 mmHg 73%
    08:00 +21°C° 0 mm 4 mps 753 mmHg 65%
    09:00 +23°C° 0 mm 4 mps 753 mmHg 57%
    10:00 +25°C° 0 mm 5 mps 752 mmHg 55%
    11:00 +27°C° 0 mm 5 mps 752 mmHg 52%
    12:00 +28°C° 0 mm 6 mps 752 mmHg 49%
    13:00 +28°C° 0 mm 6 mps 752 mmHg 50%
    14:00 +29°C° 0 mm 6 mps 751 mmHg 51%
    15:00 +29°C° 0 mm 5 mps 751 mmHg 52%
    16:00 +29°C° 0 mm 5 mps 751 mmHg 53%
    17:00 +29°C° 0 mm 5 mps 751 mmHg 54%
    18:00 +29°C° 0 mm 4 mps 750 mmHg 55%
    19:00 +28°C° 0 mm 4 mps 750 mmHg 58%
    20:00 +27°C° 0 mm 5 mps 750 mmHg 60%
    21:00 +25°C° 0 mm 5 mps 750 mmHg 62%
    22:00 +23°C° 0.7 mm 4 mps 750 mmHg 69%
    23:00 +22°C° 0.7 mm 4 mps 750 mmHg 75%

    Tomorrow, 16 August, Thursday

    Time Temperature Precipitation Wind Pressure Humidity
    00:00 +21°C° 0.7 mm 4 mps 750 mmHg 82%
    01:00 +20°C° 0.1 mm 3 mps 750 mmHg 85%
    02:00 +19°C° 0.1 mm 3 mps 750 mmHg 88%
    03:00 +19°C° 0.1 mm 3 mps 751 mmHg 91%
    04:00 +19°C° 0.1 mm 3 mps 751 mmHg 92%
    05:00 +19°C° 0.1 mm 2 mps 751 mmHg 92%
    06:00 +18°C° 0.1 mm 2 mps 751 mmHg 93%
    07:00 +20°C° 0 mm 3 mps 751 mmHg 87%
    08:00 +21°C° 0 mm 3 mps 751 mmHg 81%
    09:00 +22°C° 0 mm 3 mps 752 mmHg 76%
    10:00 +24°C° 0 mm 3 mps 752 mmHg 71%
    11:00 +25°C° 0 mm 3 mps 752 mmHg 66%
    12:00 +26°C° 0 mm 3 mps 752 mmHg 61%
    13:00 +26°C° 0 mm 3 mps 752 mmHg 60%
    14:00 +27°C° 0 mm 3 mps 752 mmHg 58%
    15:00 +27°C° 0 mm 3 mps 752 mmHg 57%
    16:00 +26°C° 0.6 mm 3 mps 752 mmHg 64%
    17:00 +25°C° 0.6 mm 2 mps 752 mmHg 72%
    18:00 +23°C° 0.6 mm 2 mps 753 mmHg 80%
    19:00 +21°C° 0.2 mm 2 mps 753 mmHg 83%
    20:00 +20°C° 0.2 mm 2 mps 753 mmHg 87%
    21:00 +19°C° 0.2 mm 2 mps 753 mmHg 90%
    22:00 +19°C° 0 mm 2 mps 754 mmHg 91%
    23:00 +18°C° 0 mm 2 mps 754 mmHg 93%

    Day after tomorrow, 17 August, Friday

    Time Temperature Precipitation Wind Pressure Humidity
    00:00 +17°C° 0 mm 2 mps 754 mmHg 94%
    01:00 +17°C° 0 mm 2 mps 754 mmHg 95%
    02:00 +16°C° 0 mm 2 mps 754 mmHg 95%
    03:00 +16°C° 0 mm 2 mps 754 mmHg 96%
    04:00 +16°C° 0 mm 2 mps 755 mmHg 95%
    05:00 +16°C° 0 mm 2 mps 755 mmHg 94%
    06:00 +14°C° 0 mm 3 mps 755 mmHg 94%
    07:00 +17°C° 0 mm 3 mps 755 mmHg 88%
    08:00 +18°C° 0 mm 3 mps 755 mmHg 82%
    09:00 +20°C° 0 mm 3 mps 756 mmHg 76%
    10:00 +21°C° 0 mm 3 mps 756 mmHg 68%
    11:00 +24°C° 0 mm 3 mps 756 mmHg 60%
    12:00 +25°C° 0 mm 3 mps 756 mmHg 53%
    13:00 +26°C° 0 mm 3 mps 756 mmHg 50%
    14:00 +26°C° 0 mm 3 mps 756 mmHg 48%
    15:00 +27°C° 0 mm 3 mps 755 mmHg 45%
    16:00 +26°C° 0 mm 3 mps 756 mmHg 48%
    17:00 +26°C° 0 mm 3 mps 756 mmHg 50%
    18:00 +26°C° 0 mm 3 mps 756 mmHg 53%
    19:00 +24°C° 0 mm 3 mps 756 mmHg 58%
    20:00 +21°C° 0 mm 2 mps 756 mmHg 63%
    21:00 +19°C° 0 mm 2 mps 756 mmHg 68%
    22:00 +18°C° 0 mm 2 mps 757 mmHg 71%
    23:00 +17°C° 0 mm 2 mps 757 mmHg 74%

    18 August, Saturday

    Time Temperature Precipitation Wind Pressure Humidity
    00:00 +16°C° 0 mm 2 mps 757 mmHg 77%
    01:00 +16°C° 0 mm 2 mps 757 mmHg 80%
    02:00 +15°C° 0 mm 2 mps 757 mmHg 82%
    03:00 +15°C° 0 mm 2 mps 757 mmHg 84%
    04:00 +15°C° 0 mm 2 mps 758 mmHg 84%
    05:00 +15°C° 0 mm 2 mps 758 mmHg 84%
    06:00 +14°C° 0 mm 2 mps 758 mmHg 84%
    07:00 +17°C° 0 mm 2 mps 758 mmHg 75%
    08:00 +19°C° 0 mm 2 mps 758 mmHg 66%
    09:00 +21°C° 0 mm 2 mps 759 mmHg 58%
    10:00 +23°C° 0 mm 2 mps 759 mmHg 52%
    11:00 +24°C° 0 mm 3 mps 759 mmHg 46%
    12:00 +25°C° 0 mm 3 mps 759 mmHg 41%
    13:00 +26°C° 0 mm 3 mps 758 mmHg 39%
    14:00 +26°C° 0 mm 3 mps 758 mmHg 37%
    15:00 +27°C° 0 mm 2 mps 758 mmHg 35%
    16:00 +26°C° 0 mm 2 mps 758 mmHg 38%
    17:00 +26°C° 0 mm 2 mps 758 mmHg 41%
    18:00 +25°C° 0 mm 2 mps 758 mmHg 44%
    19:00 +23°C° 0 mm 2 mps 758 mmHg 49%
    20:00 +20°C° 0 mm 2 mps 758 mmHg 53%
    21:00 +18°C° 0 mm 2 mps 758 mmHg 58%
    22:00 +17°C° 0 mm 2 mps 758 mmHg 61%
    23:00 +16°C° 0 mm 2 mps 758 mmHg 64%

    19 August, Sunday

    Time Temperature Precipitation Wind Pressure Humidity
    00:00 +15°C° 0 mm 2 mps 759 mmHg 67%
    01:00 +15°C° 0 mm 2 mps 759 mmHg 69%
    02:00 +14°C° 0 mm 2 mps 759 mmHg 72%
    03:00 +14°C° 0 mm 2 mps 759 mmHg 74%
    04:00 +13°C° 0 mm 2 mps 759 mmHg 76%
    05:00 +13°C° 0 mm 2 mps 759 mmHg 77%
    06:00 +13°C° 0 mm 2 mps 759 mmHg 78%
    07:00 +15°C° 0 mm 2 mps 759 mmHg 71%
    08:00 +17°C° 0 mm 2 mps 759 mmHg 64%
    09:00 +20°C° 0 mm 2 mps 758 mmHg 57%
    10:00 +21°C° 0 mm 3 mps 758 mmHg 52%
    11:00 +22°C° 0 mm 3 mps 758 mmHg 47%
    12:00 +24°C° 0 mm 3 mps 758 mmHg 42%
    13:00 +25°C° 0 mm 3 mps 757 mmHg 41%
    14:00 +25°C° 0 mm 3 mps 757 mmHg 39%
    15:00 +26°C° 0 mm 3 mps 756 mmHg 38%
    16:00 +25°C° 0 mm 3 mps 756 mmHg 42%
    17:00 +25°C° 0 mm 3 mps 756 mmHg 46%
    18:00 +24°C° 0 mm 2 mps 755 mmHg 49%
    19:00 +21°C° 0 mm 2 mps 755 mmHg 54%
    20:00 +19°C° 0 mm 2 mps 755 mmHg 59%
    21:00 +17°C° 0 mm 2 mps 755 mmHg 64%
    22:00 +17°C° 0 mm 2 mps 755 mmHg 66%
    23:00 +16°C° 0 mm 3 mps 755 mmHg 67%

    20 August, Monday

    Time Temperature Precipitation Wind Pressure Humidity
    00:00 +14°C° 0 mm 3 mps 755 mmHg 68%
    01:00 +14°C° 0 mm 3 mps 755 mmHg 68%
    02:00 +14°C° 0 mm 3 mps 755 mmHg 68%
    03:00 +14°C° 0 mm 3 mps 754 mmHg 68%
    04:00 +14°C° 0 mm 3 mps 754 mmHg 68%
    05:00 +14°C° 0 mm 3 mps 754 mmHg 67%
    06:00 +14°C° 0 mm 3 mps 754 mmHg 66%
    07:00 +17°C° 0 mm 4 mps 754 mmHg 62%
    08:00 +18°C° 0 mm 4 mps 754 mmHg 57%
    09:00 +20°C° 0 mm 4 mps 754 mmHg 52%
    10:00 +21°C° 0 mm 5 mps 753 mmHg 50%
    11:00 +22°C° 0 mm 5 mps 753 mmHg 47%
    12:00 +23°C° 0 mm 5 mps 753 mmHg 45%
    13:00 +25°C° 0 mm 4 mps 753 mmHg 46%
    14:00 +25°C° 0 mm 4 mps 753 mmHg 48%
    15:00 +25°C° 0 mm 4 mps 753 mmHg 50%
    16:00 +25°C° 0.1 mm 3 mps 752 mmHg 54%
    17:00 +24°C° 0.1 mm 3 mps 752 mmHg 59%
    18:00 +24°C° 0.1 mm 2 mps 752 mmHg 63%
    19:00 +23°C° 0.1 mm 2 mps 752 mmHg 70%
    20:00 +20°C° 0.1 mm 2 mps 752 mmHg 77%
    21:00 +19°C° 0.1 mm 2 mps 752 mmHg 84%
    22:00 +18°C° 0 mm 2 mps 752 mmHg 87%
    23:00 +17°C° 0 mm 2 mps 752 mmHg 90%
    Show more